Torna al catalogo

STARLINK-37525

AttivoComunicazioniVLEO
NORAD 69462·PAYLOAD·🇺🇸 United States

Lanciato Jun 8, 2026 da Cape Canaveral Space Force Station

Loading…

Prossimi Passaggi (prossime 24 ore)

TLE

AggiornatoSource: CelesTrak SupGP

Epoca: Sep 15, 2026, 04:32 UTC

1 69462C 26127V   26258.18937500 -.00007755  00000+0 -22918-3 0  2589
2 69462  53.1573 190.7023 0001305  87.8577 301.4427 15.34386779    11

Traccia STARLINK-37525 in tempo reale con AllMySat

Download on the App Store